Flag for Vanuatu Weather past 2 weeks in Port Vila, Vanuatu

Now
68 °F

Passing clouds.


Feels Like: 68 °F
Forecast: 72 / 79 °F
Wind: 2 mph from Northeast

Location: Bauerfield Efate

Current Time: Sep 1, 2015 at 11:35:24 PM

Latest Report: Sep 1, 2015 at 11:00 PM


Visibility: N/A

Pressure: 30.01 "Hg

Humidity: 94%

Dew point: 66 °F

Location of Port VilaLocation

Historic Weather in Port Vila — Graph

°F

Port Vila temperature yesterday

Maximum temperature yesterday: 82 °F (at 2:00 PM)
Minimum temperature yesterday: 68 °F (at 2:00 AM)
Average temperature yesterday: 74 °F

Past Weeks' High & Low Weather Summary

 TemperatureHumidityPressure
High82 °F (Aug 19, 2:00 PM)100% (Aug 18, 8:00 PM)30.12 "Hg (Aug 18, 8:00 PM)
Low59 °F (Aug 22, 5:00 AM)48% (Aug 29, 1:00 PM)29.89 "Hg (Aug 19, 3:00 AM)
Average71 °F81%30.03 "Hg
* Reported Aug 17 10:00 PM — Sep 1 10:00 PM, Port Vila, Weather by CustomWeather, © 2015

Note: Actual official high and low records may vary slightly from our data, if they occured in-between our weather recording intervals... More about our weather records

Advertising

Port Vila weather history for previous 24 hours

 ConditionsComfort  
Time TempWeatherWind HumidityBarometerVisibility
10:00 PM
Tue, Sep 1
72 °FPartly cloudy.No wind88%30.01 "HgN/A
9:00 PM72 °FPartly cloudy.No wind88%30.01 "HgN/A
8:00 PM73 °FPartly cloudy.1 mph89%29.98 "HgN/A
7:00 PM75 °FPartly cloudy.N/A78%29.95 "HgN/A
6:00 PM77 °FPartly cloudy.2 mph74%29.92 "HgN/A
5:00 PM77 °FBroken clouds.1 mph74%29.92 "HgN/A
4:00 PM81 °FBroken clouds.3 mph70%29.92 "HgN/A
3:00 PM79 °FBroken clouds.7 mph74%29.92 "HgN/A
2:00 PM81 °FPartly sunny.7 mph66%29.92 "HgN/A
1:00 PM81 °FBroken clouds.6 mph66%29.98 "HgN/A
12:00 PM81 °FBroken clouds.6 mph66%29.98 "HgN/A
11:00 AM79 °FBroken clouds.8 mph100%29.98 "HgN/A
10:00 AM79 °FBroken clouds.9 mph94%29.89 "HgN/A
9:00 AM77 °FOvercast.6 mph94%29.98 "HgN/A
8:00 AM75 °FPartly sunny.5 mph83%29.95 "HgN/A
7:00 AM75 °FOvercast.No wind83%29.95 "HgN/A
6:00 AM73 °FPartly sunny.3 mph83%29.95 "HgN/A
5:00 AM72 °FPassing clouds.No wind88%29.92 "HgN/A
4:00 AM72 °FPassing clouds.3 mph83%29.92 "HgN/A
3:00 AM73 °FPassing clouds.5 mph94%29.92 "HgN/A
2:00 AM73 °FPassing clouds.3 mph83%29.95 "HgN/A
1:00 AM73 °FPassing clouds.No wind83%29.95 "HgN/A
12:00 AM73 °FPassing clouds.No wind78%29.98 "HgN/A
11:00 PM
Mon, Aug 31
73 °FPartly cloudy.No wind83%29.98 "HgN/A
Weather by CustomWeather, © 2015

See weather overviewHow to use our weather pages